www.pogodaiklimat.ru
ПОГОДА в Керманшахе
Время
(UTC), дата
18 22.11
21 22.11
00 23.11
03 23.11
06 23.11
09 23.11
12 23.11
15 23.11
18 23.11
21 23.11
00 24.11
03 24.11
06 24.11
09 24.11
12 24.11
15 24.11
18 24.11
21 24.11
00 25.11
03 25.11
06 25.11
09 25.11
12 25.11
15 25.11
18 25.11
21 25.11
00 26.11
03 26.11
06 26.11
09 26.11
12 26.11
15 26.11
18 26.11
21 26.11
00 27.11
03 27.11
06 27.11
09 27.11
12 27.11
15 27.11
18 27.11
21 27.11
00 28.11
03 28.11
06 28.11
09 28.11
12 28.11
15 28.11
18 28.11
21 28.11
00 29.11
03 29.11
06 29.11
09 29.11
12 29.11
15 29.11
Ветер
(напр.,м/с)
Видим. Явления Облачность Т
(С)
Тd
(С)
f
(%)
Тe
(С)
Тes
(С)
Комфортность P
(гПа)
Po
(гПа)
Тmin
(С)
Tmax
(С)
R
(мм)
R24
(мм)
S
(см)
В 3 10 км ясно +7.3 +3.8 78 +5 +5 1019.9 871.6
штиль 0 10 км 1/0
[Ac lent]
+4.7 +2.9 88 +4 +4 1019.2 871.1
В 2 8000 м дымка ясно +3.0 +2.3 95 -0 -0 1013.7 866.1
штиль 0 8000 м дымка 3/0
[Ac lent]
+2.1 +1.6 96 +1 +1 1020.8 871.5 +1.5
Ю 2 10 км 5/1 1000 м
[St Ci fib]
+6.1 +4.4 89 +4 +6 1021.3 872.2
ЮВ 2 15 км 3/3 1050 м
[Cb calv]
+12.1 +3.3 55 +11 +16 1019.5 871.5
З 2 20 км 1/1 1350 м
[Sc]
+13.6 -2.0 34 +13 +15 1018.3 870.2
З 2 15 км 1/1 1200 м
[St]
+9.4 -1.1 48 +8 +8 1020.3 870.7 +14.2
штиль 0 10 км ясно +4.7 +1.7 81 +4 +4 1021.9 871.7
ЮВ 2 10 км ясно +2.9 +1.0 87 -0 -0 1020.5 871.8
штиль 0 10 км ясно +1.3 +0.3 93 0 0 1020.6 871.8
В 2 10 км ясно +0.8 0.0 94 -3 -3 1021.9 871.8 +0.1
штиль 0 7000 м мгла ясно +6.3 +2.7 78 +6 +9 1023.6 873.5
штиль 0 10 км 1/1 1350 м
[Cu hum]
+12.0 +2.6 53 +12 +20 1020.9 872.2
ЮВ 4 10 км ясно +13.5 -0.5 38 +12 +14 1018.8 870.2
штиль 0 10 км ясно +8.2 +1.9 64 +8 +8 1021.1 870.8 +14.2
ЮВ 1 10 км 1/0
[Ci fib]
+3.7 0.0 77 +2 +2 1021.2 871.1
ЮВ 2 10 км 1/0
[Ci fib]
+4.0 +0.6 78 +1 +1 1019.2 870.9
штиль 0 10 км ясно +1.5 0.0 90 0 0 1019.4 870.8
штиль 0 6000 м дымка 1/0
[Ac cuf]
-0.2 +7.1 100 -2 -2 1019.3 870.7 -0.3
штиль 0 10 км 5/0
[Cs]
+4.7 +2.2 84 +4 +7 1022.5 871.9
ЮВ 2 10 км 8/0
[Ac trans Cs]
+12.6 +2.9 52 +12 +17 1017.6 869.8
Ю 2 10 км 6/3 1500 м
[Cu hum Ac trans Ci fib]
+15.4 -8.0 19 +16 +17 1017.0 869.1
Ю 2 10 км 6/0
[Ac trans Ci fib]
+10.2 -13.3 18 +9 +9 1019.2 869.4 +16.6
ЮВ 2 10 км 8/1 1350 м
[Sc diur, vesp Ac und Cs]
+10.4 -14.1 16 +10 +10 1018.8 870.1
В 4 10 км 8/1 1350 м
[Sc diur, vesp Ac As]
+11.4 -11.8 18 +10 +10 1015.8 869.7
В 7 10 км 8/1 1350 м
[Sc diur, vesp Ac und Cs]
+13.0 -15.2 13 +11 +11 1012.8 868.1
ЮВ 7 8000 м мгла 8/3 1350 м
[Sc diur, vesp Ac As Cs]
+11.8 -5.3 30 +9 +9 1015.1 868.7 +10.8
ЮВ 9 6000 м слаб. ливневой дождь 10/8 300 м
[Cb cap As op]
+10.8 -2.2 40 +7 +7 1016.1 869.5 0.0 0.0
В 6 6000 м слаб. ливневой дождь 10/5 1200 м
[Cb cap As op]
+11.0 +3.7 61 +8 +8 1012.1 866.4
ЮВ 9 7000 м осадки на расстоянии {ливн. дождь} 9/4 1050 м
[Cb cap Ac As]
+13.3 +2.0 46 +11 +11 1009.4 865.0 0.6
В 5 10 км 8/3 1050 м
[Cb calv Ac As]
+11.9 +5.0 63 +10 +10 1011.6 866.4 +13.5
ЮВ 4 10 км 5/5 1500 м
[Sc diur, vesp]
+10.2 +3.4 63 +8 +8 1013.9 867.6
ЮВ 3 10 км 5/5 1500 м
[Sc diur, vesp]
+9.9 +3.5 64 +8 +8 1014.9 868.5
ЮВ 3 10 км 6/6 1500 м
[Sc diur, vesp]
+10.3 +2.8 60 +9 +9 1015.5 869.6
В 2 10 км 4/0
[Ac trans]
+7.4 +3.5 76 +5 +5 1017.8 870.6 +6.4
В 4 20 км 8/0 1500 м
[Ac As Ci fib]
+13.1 +0.1 41 +12 +13 1019.2 872.7 0.4
В 3 20 км 8/5 1500 м
[Cb calv Ci fib]
+14.3 +0.2 38 +14 +16 1019.2 872.8
Ю 3 20 км 6/4 1410 м
[Cb calv Ac cuf Ci fib]
+15.3 -1.1 32 +15 +16 1018.8 872.8
З 3 20 км 5/3 1350 м
[Sc Ac trans Ci fib]
+9.4 +3.1 65 +7 +7 1023.0 874.4 +16.1
З 2 15 км 3/3 1500 м
[Sc]
+6.3 +1.7 72 +4 +4 1024.2 876.0
В 2 15 км 3/3 1500 м
[Sc]
+4.6 +2.0 83 +2 +2 1024.7 876.3
В 2 15 км 8/1 1000 м
[Sc Ci fib]
+4.5 +2.4 86 +2 +2 1024.1 876.0
штиль 0 10 км 8/1 1000 м
[Sc Ci fib]
+4.6 +2.0 83 +4 +4 1024.9 875.6 +4.2
штиль 0 9000 м слаб. дождь 10/4 600 м
[Sc diur, vesp As op]
+6.6 +4.2 85 +6 +6 1026.4 876.4 0.0 0.0
В 3 10 км 9/4 1500 м
[Sc diur, vesp As trans]
+9.7 +3.7 66 +8 +9 1024.2 874.9
В 4 10 км 9/4 1500 м
[Sc diur, vesp As op]
+9.4 +2.6 62 +7 +7 1022.2 873.0
В 6 10 км 10/4 1500 м
[Sc diur, vesp As op]
+9.0 +3.4 68 +5 +5 1021.6 872.5 +9.7
В 7 10 км ливневой дождь 10/9 1200 м
[Cb calv As op]
+7.9 +4.5 79 +3 +3 1019.7 871.1 0.5
В 6 8000 м слаб. дождь 10/9 1200 м
[Cb calv As op]
+7.0 +5.3 89 +2 +2 1017.5 869.8
С 5 8000 м дождь 10/8 1200 м
[Sc As op]
+6.8 +3.8 81 +3 +3 1018.2 870.2 13
Ю 3 6000 м дождь 10/8 1050 м
[Sc As op]
+5.6 +5.0 96 +2 +2 1018.7 870.3 +5.6
ЮВ 5 8000 м слаб. дождь 9/4 210 м
[Cb cap As op]
+5.5 +4.6 94 +1 +1 1019.4 870.6 21 34.4
В 3 9000 м в посл. час дождь 10/4 240 м
[Frnb As op]
+6.0 +4.3 89 +3 +3 1020.1 871.1
ЮВ 5 20 км {дождь} 8/6 300 м
[Cu Sc Ac As]
+8.0 +5.5 84 +4 +5 1018.2 869.9 0.8
Ю 4 20 км 6/1 900 м
[Frnb Ac As]
+7.3 +5.0 85 +4 +4 1019.1 870.2 +8.8
Местоположение метеостанции Керманшах (Иран): широта 34.27 долгота 47.12 высота над уровнем моря 1322 м.
В архиве по умолчанию представлена погода в Керманшахе за последнюю неделю. Архивные данные за месяц целиком и за предыдущие месяцы, начиная с января 2011 года, Вы можете получить, выбрав интересующий диапазон дат из раскрывающегося списка и нажав кнопку "Найти!".
*Определитесь, кто Вы:
Внимание! Время в таблицах - всемирное. Для получения местного времени необходимо прибавить поправку, которая равна 3.5 ч.
Смотрите также архив погоды в соседних городах и на ближайших метеорологических станциях:
Партнеры нашего сайта:      
Пояснения к столбцам:
  • Ветер - указаны скорость ветра в м/с - средняя за 10 мин, порывы в срок и между сроками (в фигурных скобках) и направление, откуда дует ветер: С - северный,
  • СВ - северо-восточный, В - восточный, ЮВ - юго-восточный, Ю - южный, ЮЗ - юго-западный, З - западный, СЗ - северо-западный.
  • Видимость - горизонтальная дальность видимости в метрах или километрах. При видимости от 1 до 10 км при отсутствии осадков обычно наблюдается дымка, при ухудшении видимости до 1 км и менее - туман. В сухую погоду видимость может ухудшаться дымом, пылью или мглою.
  • Явления - указаны атмосферные явления, наблюдавшиеся в срок или в последний час перед сроком; фигурными скобками обозначены явления, наблюдавшиеся между сроками (за 1-3 часа до срока); квадратными скобками обозначены град или гололедные отложения с указанием их диаметра в мм.
  • Облачность - указаны через наклонную черту общая и нижняя облачность в баллах и высота нижней границы облаков в метрах; квадратными скобками обозначены формы облаков: Ci - перистые, Cs - перисто-слоистые, Cc - перисто-кучевые, Ac - высококучевые, As - высокослоистые, Sc - слоисто-кучевые, Ns - слоисто-дождевые, Cu - кучевые, Cb - кучево-дождевые. Подробнее классификацию облаков см. в Атласе облаков (PDF).
  • T - Температура воздуха - температура, измеренная на высоте 2 м над землей.
  • Td - Температура точки росы - температура, при понижении до которой содержащийся в воздухе водяной пар достигнет насыщения.
  • f - Относительная влажность воздуха - влажноcть воздуха, измеренная на высоте 2 м над землей.
  • Te - Эффективная температура - температура, которую ощущает одетый по сезону человек в тени. Характеристика душности погоды. При расчете учитывается влияние влажности воздуха и скорости ветра на теплоощущения человека.
  • Tes - Эффективная температура на солнце - температура, которую ощущает человек, с поправкой на солнечный нагрев. Характеристика знойности погоды. Зависит от высоты солнца над горизонтом, облачности и скорости ветра. Ночью, в пасмурную погоду, а также при ветре 12 м/с и более поправка равна нулю.
  • P - Атмосферное давление - приведенное к уровню моря атмосферное давление.
  • Po - Атмосферное давление - измеренное на уровне метеостанции атмосферное давление.
  • Tmin - Минимальная температура - минимум температуры воздуха на высоте 2 м над землей.
  • Tmax - Максимальная температура - максимум температуры воздуха на высоте 2 м над землей.
  • R - Количество осадков - Количество выпавших осадков за период времени, мм. При наведении курсора мыши на число - период времени, за который выпало указанное количество осадков.
  • R24 - Количество осадков - Количество выпавших осадков за 24 часа, мм.
  • S - Снежный покров - Высота снежного покрова, см. При наведении курсора мыши на число - состояние снежного покрова и степень покрытия местности в баллах.